STARLINK-35137, 65686

Orbit data source: Space-Track

STARLINK-35137, 65686 is a payload satellite owned by SpaceX/Seattle (US) in LEO that was launched on Sun, 21 Sep 2025 UTC via an FALCON 9 launch vehicle from the Air Force Eastern Test Range (AFETR). Payload-class satellites include a variety of spacecraft equipped with specific instruments for various scientific and technological missions. These include communications satellites like Starlink; space stations such as the ISS; scientific satellites like the Hubble; Earth observation satellites from companies like Planet Labs, Umbra, and HawkEye 360; GPS; miniature CubeSats for education and research; and military/defense satellites.

Loading next visibility...
Identifier
65686, 2025-212L
Orbit
LEO
Country
Flag of USUS
Related business
Manufacturer
SpaceX/Seattle
Mission
Operational Commercial Communications
Bus & Motor
STARLINK V2MO, Unknown motor
Mass
575 kg wet, ~530 kg dry
Launch date (UTC)
2025-09-21 (9 months ago)
Launch vehicle
FALCON 9
Launch site
Air Force Eastern Test Range (AFETR)
Object type
Payload
Rocket body
Debris
Shape & HBR
Box + 2 Pan, 17.7 m
Radar Cross Section
36.964 m², Large (>1 m²)

Expand to show TLE details & history
Last TLE update: 10 hours ago

TLE from 10 hours ago
0 STARLINK-35137
1 65686U 25212L   26171.43584534  .00012288  00000-0  37415-3 0  9990
2 65686  53.1584 217.7884 0000997  94.8981 265.2135 15.34404925 43075
Epoch: 2026-06-20T10:27Z
TLE epoch observation values (Epoch: 2026-06-20T10:27:37.037Z)
Latitude
-0.00005°
Longitude
152.23354°
Altitude
463.647 km
Speed
7.636 km/s
True Right ascension
14h 31m 09s
True Declination
0° 00' 00"
Sunlit
Object was in full shadow at epoch
Visualization orbit readout
Latitude
Unknown
Longitude
Unknown
Altitude
Unknown
Speed
Unknown
Apparent Right ascension
Unknown
Apparent Declination
Unknown
Sunlit
N/A
Visualization observer readout
Local Sidereal Time
07:12:31
Azimuth
Unknown
Elevation
Unknown
Doppler factor
Unknown
Orbital elements
Apogee altitude
463.628 km
Perigee altitude
462.264 km
Semi-major axis
6,841.083 km
Eccentricity
0.0001
Inclination
53.1584°
RAAN
217.7884°
Arg. of periapsis
94.8981°
True anomaly
265.20212°
Mean anomaly
265.2135°
Eccentric anomaly
265.20781°
Mean motion
3.8358 °/min
Orbital period
93.85 mins
BSTAR
0.00037415
Loading maneuver chart data...
Computing Atmospheric mass density...
Loading historical data...
Loading historical data...
Loading historical data...
Loading historical data...
Loading historical data...
Loading historical data...
Loading historical data...

Documentation

Showing up to 5 results
|